User: anonymous
Location: Hamburg
(53.5500°N, 10.0000°E)
Time: 03:33:14
(UTC+02:00)
Language:

Courier 1B - Orbit

View from above orbital plane
View from above orbital plane
View from above satellite
View from above satellite

Ground track
Ground track

The orbit data is extracted from the following two-line orbital elements,

1 00058U 60013A   14233.78698130  .00000102  00000-0  27659-4 0  7431
2 00058 028.3280 083.5015 0164976 102.8104 259.0928 13.46278930652347
Epoch (UTC): 21 August 2014 18:53:15
Eccentricity: 0.0164976
inclination: 28.3280°
perigee height: 963 km
apogee height: 1209 km
right ascension of ascending node: 83.5015°
argument of perigee: 102.8104°
revolutions per day: 13.46278930
mean anomaly at epoch: 259.0928°
orbit number at epoch: 65234

The dashed part of the orbit path shows where the satellite is in the earth's shadow,  

DLR